Weather History for CYQT - August, 2013

Change the Weather History Date:

Friday, August 2, 2013

  Actual Average Record
Temperature  
Mean Temperature 62 °F -  
Max Temperature 73 °F 37 °F 82 °F (1998)
Min Temperature 50 °F 29 °F 44 °F (1999)
Degree Days  
Heating Degree Days 4    
Growing Degree Days 12 (Base 50)    
Moisture  
Dew Point 52 °F    
Average Humidity 74    
Maximum Humidity 100    
Minimum Humidity 41    
Precipitation  
Precipitation 0.00 in 0.03 in - ()
Sea Level Pressure  
Sea Level Pressure 29.84 in    
Wind  
Wind Speed 6 mph ()    
Max Wind Speed 18 mph    
Max Gust Speed 26 mph    
Visibility 17.8 miles    
Events Rain    
Averages and records for this station are not official NWS values.
T = Trace of Precipitation, MM = Missing Value Source: Averaged Metar Reports

Daily Weather History Graph

Daily Weather History Graph

Search for Another Location

Airport or City:

Trip Planner

Search our weather history database for the weather conditions in past years. The results will help you decide how hot, cold, wet, or windy it might be!

Date:

Astronomy

Aug. 02, 2013 Rise Set
Actual Time 6:33 AM EDT 9:32 PM EDT
Civil Twilight 5:57 AM EDT 10:08 PM EDT
Nautical Twilight 5:09 AM EDT 10:55 PM EDT
Astronomical Twilight 4:12 AM EDT 11:52 PM EDT
Moon 2:51 AM EDT (8/2) 6:33 PM EDT (8/2)
Length of Visible Light 16h 11m
Length of Day
14h 58m
Waning Crescent, 16% of the Moon is Illuminated
Aug 2
Waning Crescent
Aug 6
New
Aug 14
First Quarter
Aug 20
Full
Aug 28
Last Quarter

Hourly Weather History & Observations

Time (EDT) Temp. Dew Point Humidity Pressure Visibility Wind Dir Wind Speed Gust Speed Precip Events Conditions
12:00 AM 53.6 °F 51.8 °F 94% 29.83 in 15.0 mi SW 4.6 mph - N/A   Mostly Cloudy
1:00 AM 53.6 °F 51.8 °F 94% 29.82 in 15.0 mi West 2.3 mph - N/A   Mostly Cloudy
2:00 AM 54 °F 53 °F 93% 29.81 in 10 mi West 1.2 mph - -   Overcast
2:00 AM 53.6 °F 51.8 °F 94% 29.81 in 15.0 mi Variable 2.3 mph - N/A   Overcast
3:00 AM 55.4 °F 53.6 °F 94% 29.80 in 15.0 mi SSW 5.8 mph - N/A   Overcast
4:00 AM 51.8 °F 51.8 °F 100% 29.79 in 15.0 mi West 4.6 mph - N/A   Partly Cloudy
5:00 AM 50.0 °F 50.0 °F 100% 29.80 in 15.0 mi WSW 3.5 mph - N/A   Partly Cloudy
6:00 AM 51.8 °F 50.0 °F 94% 29.80 in 20.0 mi WSW 2.3 mph - N/A   Scattered Clouds
7:00 AM 50.0 °F 50.0 °F 100% 29.81 in 20.0 mi WSW 3.5 mph - N/A   Scattered Clouds
8:00 AM 54 °F 53 °F 97% 29.82 in 10 mi SW 3.5 mph - -   Overcast
8:00 AM 53.6 °F 53.6 °F 100% 29.82 in 20.0 mi SW 4.6 mph - N/A   Mostly Cloudy
9:00 AM 57.2 °F 55.4 °F 94% 29.83 in 20.0 mi WSW 6.9 mph - N/A   Mostly Cloudy
10:00 AM 60.8 °F 55.4 °F 82% 29.83 in 20.0 mi WNW 10.4 mph - N/A   Mostly Cloudy
11:00 AM 62.6 °F 55.4 °F 77% 29.84 in 20.0 mi WNW 10.4 mph - N/A   Mostly Cloudy
12:00 PM 66.2 °F 57.2 °F 73% 29.83 in 20.0 mi West 12.7 mph - N/A   Mostly Cloudy
1:00 PM 68.0 °F 53.6 °F 60% 29.83 in 20.0 mi NNW 13.8 mph 20.7 mph N/A   Mostly Cloudy
2:00 PM 67 °F 53 °F 51% 29.84 in 10 mi WNW 11.5 mph - -  
2:00 PM 68.0 °F 53.6 °F 60% 29.84 in 20.0 mi NW 8.1 mph 20.7 mph N/A   Mostly Cloudy
3:00 PM 69.8 °F 51.8 °F 53% 29.84 in 20.0 mi WNW 10.4 mph 19.6 mph N/A   Scattered Clouds
4:00 PM 73.4 °F 48.2 °F 41% 29.84 in 20.0 mi West 18.4 mph - N/A   Mostly Cloudy
5:00 PM 71.6 °F 48.2 °F 43% 29.85 in 20.0 mi NNW 17.3 mph 26.5 mph N/A   Scattered Clouds
5:06 PM 69.8 °F 46.4 °F 43% 29.85 in 20.0 mi NNW 16.1 mph 25.3 mph N/A Rain Light Rain Showers
5:37 PM 69.8 °F 50.0 °F 49% 29.86 in 20.0 mi NW 5.8 mph - N/A   Scattered Clouds
6:00 PM 69.8 °F 50.0 °F 49% 29.86 in 20.0 mi NW 17.3 mph 25.3 mph N/A   Scattered Clouds
7:00 PM 69.8 °F 50.0 °F 49% 29.88 in 20.0 mi NW 12.7 mph 26.5 mph N/A   Scattered Clouds
8:00 PM 68.0 °F 50.0 °F 52% 29.90 in 20.0 mi NNW 10.4 mph 18.4 mph N/A   Mostly Cloudy
9:00 PM 64.4 °F 50.0 °F 59% 29.91 in 20.0 mi NW 9.2 mph - N/A   Scattered Clouds
10:00 PM 60.8 °F 51.8 °F 72% 29.93 in 20.0 mi West 5.8 mph - N/A   Mostly Cloudy
11:00 PM 60.8 °F 51.8 °F 72% 29.95 in 15.0 mi West 8.1 mph - N/A   Partly Cloudy